Weather History for KPQN - September, 2012

Change the Weather History Date:

Monday, September 10, 2012

  Actual Average Record
Temperature  
Mean Temperature 68 °F -  
Max Temperature 84 °F 73 °F 87 °F (2005)
Min Temperature 53 °F 51 °F 37 °F (1999)
Cooling Degree Days 4    
Growing Degree Days 18 (Base 50)    
Moisture  
Dew Point 45 °F    
Average Humidity 45    
Maximum Humidity 72    
Minimum Humidity 23    
Precipitation  
Precipitation 0.00 in - - ()
Sea Level Pressure  
Sea Level Pressure 29.91 in    
Wind  
Wind Speed 14 mph (SSW)    
Max Wind Speed 28 mph    
Max Gust Speed 37 mph    
Visibility 10 miles    
Events      
Averages and records for this station are not official NWS values.
T = Trace of Precipitation, MM = Missing Value Source: NWS Daily Summary

Daily Weather History Graph

Daily Weather History Graph

Search for Another Location

Airport or City:

Trip Planner

Search our weather history database for the weather conditions in past years. The results will help you decide how hot, cold, wet, or windy it might be!

Date:

Astronomy

Sep. 10, 2012 Rise Set
Actual Time 6:59 AM CDT 7:43 PM CDT
Civil Twilight 6:30 AM CDT 8:12 PM CDT
Nautical Twilight 5:55 AM CDT 8:47 PM CDT
Astronomical Twilight 5:19 AM CDT 9:23 PM CDT
Moon 1:12 AM CDT (9/10) 4:22 PM CDT (9/10)
Length of Visible Light 13h 42m
Length of Day
12h 44m
Waning Crescent, 30% of the Moon is Illuminated
Sep 10
Waning Crescent
Sep 15
New
Sep 22
First Quarter
Sep 29
Full
Oct 8
Last Quarter

Hourly Weather History & Observations

Time (CDT) Temp. Dew Point Humidity Pressure Visibility Wind Dir Wind Speed Gust Speed Precip Events Conditions
12:13 AM 57.2 °F 44.6 °F 63% 30.07 in 10.0 mi SSW 9.2 mph - N/A   Clear
12:33 AM 57.2 °F 44.6 °F 63% 30.07 in 10.0 mi SSW 6.9 mph - N/A   Clear
12:54 AM 57.2 °F 44.6 °F 63% 30.07 in 10.0 mi SSW 6.9 mph - N/A   Clear
1:13 AM 57.2 °F 44.6 °F 63% 30.06 in 10.0 mi SSW 8.1 mph - N/A   Clear
1:33 AM 57.2 °F 44.6 °F 63% 30.05 in 10.0 mi SSW 9.2 mph - N/A   Clear
1:54 AM 57.2 °F 44.6 °F 63% 30.05 in 10.0 mi SSW 9.2 mph - N/A   Clear
2:13 AM 57.2 °F 44.6 °F 63% 30.05 in 10.0 mi SSW 8.1 mph - N/A   Clear
2:33 AM 57.2 °F 44.6 °F 63% 30.05 in 10.0 mi SSW 9.2 mph - N/A   Clear
2:53 AM 57.2 °F 44.6 °F 63% 30.04 in 10.0 mi SSW 9.2 mph - N/A   Clear
3:13 AM 55.4 °F 44.6 °F 67% 30.03 in 10.0 mi SSW 9.2 mph - N/A   Clear
3:33 AM 55.4 °F 44.6 °F 67% 30.03 in 10.0 mi SSW 10.4 mph - N/A   Clear
3:53 AM 55.4 °F 44.6 °F 67% 30.03 in 10.0 mi SSW 11.5 mph - N/A   Clear
4:13 AM 55.4 °F 44.6 °F 67% 30.02 in 10.0 mi SSW 10.4 mph - N/A   Clear
4:33 AM 55.4 °F 44.6 °F 67% 30.02 in 10.0 mi SSW 11.5 mph - N/A   Clear
4:53 AM 55.4 °F 44.6 °F 67% 30.01 in 10.0 mi SSW 13.8 mph - N/A   Clear
5:33 AM 55.4 °F 44.6 °F 67% 30.01 in 10.0 mi SSW 11.5 mph 17.3 mph N/A   Clear
5:53 AM 55.4 °F 44.6 °F 67% 30.00 in 10.0 mi SSW 11.5 mph 17.3 mph N/A   Clear
6:14 AM 55.4 °F 44.6 °F 67% 30.00 in 10.0 mi SSW 10.4 mph - N/A   Clear
6:33 AM 55.4 °F 44.6 °F 67% 30.00 in 10.0 mi SSW 11.5 mph 19.6 mph N/A   Clear
6:53 AM 55.4 °F 44.6 °F 67% 30.00 in 10.0 mi SSW 11.5 mph - N/A   Clear
7:14 AM 53.6 °F 44.6 °F 72% 29.99 in 10.0 mi SSW 12.7 mph 19.6 mph N/A   Clear
7:33 AM 55.4 °F 44.6 °F 67% 30.00 in 10.0 mi SSW 15.0 mph 19.6 mph N/A   Clear
7:53 AM 55.4 °F 46.4 °F 72% 29.99 in 10.0 mi SSW 16.1 mph 20.7 mph N/A   Clear
8:14 AM 57.2 °F 46.4 °F 67% 29.99 in 10.0 mi SSW 16.1 mph 20.7 mph N/A   Clear
8:33 AM 57.2 °F 46.4 °F 67% 29.98 in 10.0 mi SSW 16.1 mph 21.9 mph N/A   Clear
8:53 AM 60.8 °F 46.4 °F 59% 29.97 in 10.0 mi SSW 17.3 mph 24.2 mph N/A   Clear
9:14 AM 62.6 °F 46.4 °F 55% 29.96 in 10.0 mi SSW 17.3 mph 25.3 mph N/A   Clear
9:33 AM 64.4 °F 46.4 °F 52% 29.96 in 10.0 mi SSW 18.4 mph 28.8 mph N/A   Clear
9:53 AM 66.2 °F 46.4 °F 49% 29.96 in 10.0 mi SSW 20.7 mph 28.8 mph N/A   Clear
10:14 AM 66.2 °F 46.4 °F 49% 29.95 in 10.0 mi SSW 21.9 mph 28.8 mph N/A   Clear
10:33 AM 69.8 °F 46.4 °F 43% 29.94 in 10.0 mi SSW 21.9 mph 32.2 mph N/A   Clear
10:53 AM 71.6 °F 44.6 °F 38% 29.93 in 10.0 mi SSW 21.9 mph 29.9 mph N/A   Clear
11:13 AM 73.4 °F 44.6 °F 36% 29.93 in 10.0 mi SSW 23.0 mph 28.8 mph N/A   Clear
11:33 AM 73.4 °F 44.6 °F 36% 29.92 in 10.0 mi SSW 23.0 mph 28.8 mph N/A   Clear
11:53 AM 75.2 °F 42.8 °F 31% 29.92 in 10.0 mi SSW 23.0 mph 29.9 mph N/A   Clear
12:13 PM 75.2 °F 42.8 °F 31% 29.91 in 10.0 mi SSW 25.3 mph 34.5 mph N/A   Clear
12:33 PM 78.8 °F 44.6 °F 30% 29.90 in 10.0 mi SSW 24.2 mph 31.1 mph N/A   Clear
12:53 PM 78.8 °F 44.6 °F 30% 29.90 in 10.0 mi SSW 21.9 mph 29.9 mph N/A   Clear
1:13 PM 78.8 °F 44.6 °F 30% 29.88 in 10.0 mi South 23.0 mph 29.9 mph N/A   Clear
1:33 PM 80.6 °F 44.6 °F 28% 29.88 in 10.0 mi South 25.3 mph 31.1 mph N/A   Clear
2:13 PM 82.4 °F 42.8 °F 25% 29.85 in 10.0 mi SSW 24.2 mph 32.2 mph N/A   Clear
2:33 PM 82.4 °F 42.8 °F 25% 29.84 in 10.0 mi SSW 24.2 mph 32.2 mph N/A   Clear
2:53 PM 82.4 °F 42.8 °F 25% 29.83 in 10.0 mi South 23.0 mph 31.1 mph N/A   Clear
3:13 PM 82.4 °F 42.8 °F 25% 29.82 in 10.0 mi South 24.2 mph 34.5 mph N/A   Clear
3:34 PM 84.2 °F 42.8 °F 23% 29.81 in 10.0 mi SSW 24.2 mph 33.4 mph N/A   Clear
3:53 PM 84.2 °F 44.6 °F 25% 29.81 in 10.0 mi South 25.3 mph 32.2 mph N/A   Scattered Clouds
4:13 PM 84.2 °F 42.8 °F 23% 29.80 in 10.0 mi SSW 25.3 mph 36.8 mph N/A   Clear
4:34 PM 84.2 °F 42.8 °F 23% 29.80 in 10.0 mi SSW 24.2 mph 32.2 mph N/A   Clear
4:53 PM 84.2 °F 42.8 °F 23% 29.80 in 10.0 mi SSW 27.6 mph 32.2 mph N/A   Clear
5:13 PM 84.2 °F 42.8 °F 23% 29.80 in 10.0 mi SSW 26.5 mph 32.2 mph N/A   Clear
5:32 PM 84.2 °F 42.8 °F 23% 29.79 in 10.0 mi SSW 19.6 mph 33.4 mph N/A   Clear
5:53 PM 84.2 °F 42.8 °F 23% 29.79 in 10.0 mi SSW 19.6 mph 26.5 mph N/A   Clear
6:13 PM 82.4 °F 42.8 °F 25% 29.79 in 10.0 mi SSW 18.4 mph 29.9 mph N/A   Clear
6:33 PM 82.4 °F 42.8 °F 25% 29.79 in 10.0 mi SSW 20.7 mph 25.3 mph N/A   Clear
6:53 PM 82.4 °F 42.8 °F 25% 29.78 in 10.0 mi SSW 18.4 mph 24.2 mph N/A   Clear
7:13 PM 80.6 °F 44.6 °F 28% 29.77 in 10.0 mi SSW 17.3 mph 23.0 mph N/A   Clear
7:33 PM 80.6 °F 44.6 °F 28% 29.77 in 10.0 mi South 16.1 mph 23.0 mph N/A   Clear
7:53 PM 78.8 °F 44.6 °F 30% 29.77 in 10.0 mi South 16.1 mph 21.9 mph N/A   Clear
8:13 PM 77.0 °F 44.6 °F 32% 29.77 in 10.0 mi South 15.0 mph 19.6 mph N/A   Clear
8:33 PM 77.0 °F 44.6 °F 32% 29.78 in 10.0 mi South 15.0 mph 21.9 mph N/A   Clear
8:53 PM 77.0 °F 44.6 °F 32% 29.77 in 10.0 mi South 16.1 mph 23.0 mph N/A   Clear
9:13 PM 75.2 °F 44.6 °F 34% 29.78 in 10.0 mi South 15.0 mph - N/A   Clear
9:33 PM 75.2 °F 44.6 °F 34% 29.79 in 10.0 mi South 12.7 mph 19.6 mph N/A   Clear
9:53 PM 73.4 °F 46.4 °F 38% 29.79 in 10.0 mi South 13.8 mph - N/A   Clear
10:13 PM 73.4 °F 46.4 °F 38% 29.79 in 10.0 mi South 13.8 mph 18.4 mph N/A   Clear
10:33 PM 71.6 °F 46.4 °F 41% 29.79 in 10.0 mi South 13.8 mph - N/A   Clear
10:53 PM 71.6 °F 48.2 °F 43% 29.79 in 10.0 mi South 11.5 mph 17.3 mph N/A   Clear
11:13 PM 69.8 °F 48.2 °F 46% 29.80 in 10.0 mi South 11.5 mph - N/A   Clear
11:53 PM 68.0 °F 48.2 °F 49% 29.79 in 10.0 mi South 11.5 mph - N/A   Clear